(56214) = 1999 GC61

Discovered at Socorro on 1999-04-15 by LINEAR.

Orbit

Orbit type: Main Belt

Note: WebGL enabled browser required.

epoch2024-03-31.0
epoch JD2460400.5
perihelion date2024-08-26.30453
perihelion JD2460548.80453
argument of perihelion (°)159.58035
ascending node (°)6.48188
inclination (°)2.56885
eccentricity0.0668469
perihelion distance (AU)2.4625508
Tisserand w.r.t. Jupiter3.4
ΔV w.r.t. Earth (km/sec)9.8
semimajor axis (AU)2.6389567
mean anomaly (°)325.90350
mean daily motion (°/day)0.22990870
aphelion distance (AU)2.815
period (years)4.29
P-vector [x]-0.97051830
P-vector [y]0.21445226
P-vector [z]0.11002024
Q-vector [x]-0.24097433
Q-vector [y]-0.87290285
Q-vector [z]-0.42423105
absolute magnitude15.79
phase slope0.15
uncertainty0
referenceMPEC 2024-C46
observations used877
oppositions20
arc length (days)11451
first opposition used1992
last opposition used2024
residual rms (arc-secs)0.74
perturbers coarse indicatorM-v
perturbers precise indicator003Ek
first observation date used1992-09-28.0
last observation date used2024-02-04.0
computer nameMPCLINUX
JD of orbit computation2456966.891096
perihelion JD uncertainty (days)1.3410E-04
argument of perihelion uncertainty (°)8.8445E-05
ascending node uncertainty (°)8.3435E-05
inclination uncertainty (°)5.0267E-06
eccentricity uncertainty 4.6677E-08
perihelion distance uncertainty (AU)1.2126E-07
Minimum Orbit Intersection Distances (in AU)
for orbit epoch: 2460400.5, reference: E2024-GD4
Mercury2.06681
Venus1.74423
Earth1.46977
Mars0.79829
Jupiter2.14909
Saturn6.42836
Uranus15.9767
Neptune27.0523

Observations

895 total observations over interval: 1992 09 28.32149 – 2024 02 04.403294
These data are available for download (format description).

Date (UT) J2000 RA J2000 Dec Magn Location Ref
1992 09 28.32149 00 20 56.20 +02 09 45.9   691 – Steward Observatory, Kitt Peak-Spacewatch MPS 35517
1992 09 28.35101 00 20 54.69 +02 09 37.6 19.7 V 691 – Steward Observatory, Kitt Peak-Spacewatch MPS 35517
1992 09 28.37248 00 20 53.47 +02 09 31.4   691 – Steward Observatory, Kitt Peak-Spacewatch MPS 35517
1994 01 17.17616 07 24 49.30 +26 06 11.3   691 – Steward Observatory, Kitt Peak-Spacewatch MPS 35517
1994 01 17.19682 07 24 47.94 +26 06 13.4   691 – Steward Observatory, Kitt Peak-Spacewatch MPS 35517
1994 01 17.21719 07 24 46.58 +26 06 15.9 18.9 V 691 – Steward Observatory, Kitt Peak-Spacewatch MPS 35517
1999 02 09.51031 13 39 11.40 -10 12 36.6 19.8 V 691 – Steward Observatory, Kitt Peak-Spacewatch MPS 34114
1999 02 09.52717 13 39 11.76 -10 12 40.1 20.2 V 691 – Steward Observatory, Kitt Peak-Spacewatch MPS 34114
1999 02 09.54324 13 39 12.10 -10 12 43.7 20.1 V 691 – Steward Observatory, Kitt Peak-Spacewatch MPS 34114
1999 03 21.42573 13 33 06.04 -10 24 13.9 19.3 V 691 – Steward Observatory, Kitt Peak-Spacewatch MPS 34114
1999 03 21.44740 13 33 05.14 -10 24 10.5 19.5 V 691 – Steward Observatory, Kitt Peak-Spacewatch MPS 34114
1999 03 21.46918 13 33 04.20 -10 24 07.1 19.5 V 691 – Steward Observatory, Kitt Peak-Spacewatch MPS 34114
1999 04 09.30877 13 17 48.00 -09 18 47.9 19.0 R 699 – Lowell Observatory-LONEOS MPS 34114
1999 04 09.32419 13 17 47.24 -09 18 43.1   699 – Lowell Observatory-LONEOS MPS 34114
1999 04 09.33958 13 17 46.34 -09 18 39.4   699 – Lowell Observatory-LONEOS MPS 34114
1999 04 15.24069 13 12 31.18 -08 54 06.7 18.9   704 – Lincoln Laboratory ETS, New Mexico MPS 16476
1999 04 15.25771 13 12 30.07 -08 54 02.0 18.6   704 – Lincoln Laboratory ETS, New Mexico MPS 16476
1999 04 15.27469 13 12 29.44 -08 53 57.3 18.4   704 – Lincoln Laboratory ETS, New Mexico MPS 16476
1999 04 15.29181 13 12 28.34 -08 53 54.8 18.2   704 – Lincoln Laboratory ETS, New Mexico MPS 16476
1999 04 18.24486 13 09 54.12 -08 41 35.8 18.8 R 703 – Catalina Sky Survey MPS 16476
1999 04 18.25490 13 09 53.56 -08 41 34.0 18.7 R 703 – Catalina Sky Survey MPS 16476
1999 04 18.27102 13 09 52.68 -08 41 31.4 18.1 R 703 – Catalina Sky Survey MPS 16476
1999 04 18.32338 13 09 49.83 -08 41 17.1 19.1 R 703 – Catalina Sky Survey MPS 16476
2001 10 19.48187 03 08 52.94 +19 59 15.0 19.8   644 – Palomar Mountain/NEAT MPS 38940
2001 10 19.49500 03 08 52.28 +19 59 12.8 20.1   644 – Palomar Mountain/NEAT MPS 38940
2001 10 19.50541 03 08 51.81 +19 59 12.5 20.3   644 – Palomar Mountain/NEAT MPS 38940
2001 10 21.34563 03 07 25.23 +19 55 37.1 19.2   704 – Lincoln Laboratory ETS, New Mexico MPS 38940
2001 10 21.36196 03 07 24.44 +19 55 34.5 19.7   704 – Lincoln Laboratory ETS, New Mexico MPS 38940
2001 10 21.37829 03 07 23.61 +19 55 32.6 19.8   704 – Lincoln Laboratory ETS, New Mexico MPS 38940
2001 10 21.39464 03 07 22.77 +19 55 30.9 19.8   704 – Lincoln Laboratory ETS, New Mexico MPS 38940
2001 10 21.41098 03 07 21.97 +19 55 28.4 19.8   704 – Lincoln Laboratory ETS, New Mexico MPS 38940
2001 10 26.41189 03 03 08.33 +19 43 59.3 19.2   644 – Palomar Mountain/NEAT MPS 38940
2001 10 26.42367 03 03 07.69 +19 43 57.4 19.3   644 – Palomar Mountain/NEAT MPS 38940
2001 10 26.43985 03 03 06.80 +19 43 54.8 19.2   644 – Palomar Mountain/NEAT MPS 38940
2001 11 09.29274 02 50 03.13 +19 01 21.2 19.2   704 – Lincoln Laboratory ETS, New Mexico MPS 40156
2001 11 09.30729 02 50 02.23 +19 01 19.0 19.3   704 – Lincoln Laboratory ETS, New Mexico MPS 40156
2001 11 09.32175 02 50 01.37 +19 01 15.4 19.0   704 – Lincoln Laboratory ETS, New Mexico MPS 40156
2001 11 09.33623 02 50 00.53 +19 01 13.1 19.4   704 – Lincoln Laboratory ETS, New Mexico MPS 40156
2001 11 09.35071 02 49 59.74 +19 01 10.0 19.8   704 – Lincoln Laboratory ETS, New Mexico MPS 40156
2001 11 19.21757 02 40 43.15 +18 25 27.8 19.2   704 – Lincoln Laboratory ETS, New Mexico MPS 41669
2001 11 19.23248 02 40 42.34 +18 25 24.3 19.3   704 – Lincoln Laboratory ETS, New Mexico MPS 41669
2001 11 19.24718 02 40 41.52 +18 25 20.9 19.5   704 – Lincoln Laboratory ETS, New Mexico MPS 41669
2001 11 19.26206 02 40 40.65 +18 25 18.1 19.5   704 – Lincoln Laboratory ETS, New Mexico MPS 41669
2001 11 19.27677 02 40 39.89 +18 25 14.3 19.9   704 – Lincoln Laboratory ETS, New Mexico MPS 41669
2001 12 11.16698 02 25 41.37 +17 17 14.5 20.1   704 – Lincoln Laboratory ETS, New Mexico MPS 43044
2001 12 11.18215 02 25 40.94 +17 17 12.9 20.8   704 – Lincoln Laboratory ETS, New Mexico MPS 43044
2001 12 11.19841 02 25 40.54 +17 17 09.5 20.5   704 – Lincoln Laboratory ETS, New Mexico MPS 43044
2001 12 11.21370 02 25 40.26 +17 17 07.6 20.2   704 – Lincoln Laboratory ETS, New Mexico MPS 43044
2001 12 15.09582 02 24 13.73 +17 09 20.7 19.7   704 – Lincoln Laboratory ETS, New Mexico MPS 43044
2001 12 15.11093 02 24 13.41 +17 09 19.1 19.9   704 – Lincoln Laboratory ETS, New Mexico MPS 43044
2001 12 15.12604 02 24 13.07 +17 09 16.8 20.2   704 – Lincoln Laboratory ETS, New Mexico MPS 43044
2001 12 15.14116 02 24 12.73 +17 09 14.8 20.2   704 – Lincoln Laboratory ETS, New Mexico MPS 43044
2001 12 19.06997 02 23 11.02 +17 03 10.7 19.5   704 – Lincoln Laboratory ETS, New Mexico MPS 43044
2001 12 19.08516 02 23 10.81 +17 03 10.6 20.0   704 – Lincoln Laboratory ETS, New Mexico MPS 43044
2001 12 19.10044 02 23 10.64 +17 03 08.0 19.3   704 – Lincoln Laboratory ETS, New Mexico MPS 43044
2001 12 19.11564 02 23 10.38 +17 03 07.0 19.8   704 – Lincoln Laboratory ETS, New Mexico MPS 43044
2001 12 19.13084 02 23 10.17 +17 03 05.9 19.7   704 – Lincoln Laboratory ETS, New Mexico MPS 43044
2003 02 03.37341 11 24 18.24 +06 03 21.3 19.1 R 699 – Lowell Observatory-LONEOS MPS 73078
2003 02 03.39465 11 24 17.71 +06 03 24.2   699 – Lowell Observatory-LONEOS MPS 73078
2003 02 03.41598 11 24 17.16 +06 03 25.6   699 – Lowell Observatory-LONEOS MPS 73078
2003 02 03.43726 11 24 16.62 +06 03 30.9   699 – Lowell Observatory-LONEOS MPS 73078
2003 02 09.44810 11 21 14.40 +06 20 02.6 20.9   608 – Haleakala-AMOS MPS 73078
2003 02 09.45870 11 21 14.01 +06 20 05.2 20.7   608 – Haleakala-AMOS MPS 73078
2003 02 09.46971 11 21 13.56 +06 20 06.6 20.7   608 – Haleakala-AMOS MPS 73078
2003 02 10.41302 11 20 39.94 +06 23 08.7 20.4 V 291 – LPL/Spacewatch II MPS 73078
2003 02 10.43699 11 20 39.00 +06 23 13.4 19.9 V 291 – LPL/Spacewatch II MPS 73078
2003 02 10.47186 11 20 37.68 +06 23 20.1 19.8 V 291 – LPL/Spacewatch II MPS 73078
2003 02 22.44731 11 11 56.91 +07 09 25.9 19.1   644 – Palomar Mountain/NEAT MPS 73710
2003 02 22.46827 11 11 55.81 +07 09 30.9 19.2   644 – Palomar Mountain/NEAT MPS 73710
2003 02 22.49314 11 11 54.55 +07 09 36.9 20.3   644 – Palomar Mountain/NEAT MPS 73710
2003 03 06.36943 11 01 27.64 +08 02 19.4 18.2 R 699 – Lowell Observatory-LONEOS MPS 73710
2003 03 06.38429 11 01 26.80 +08 02 23.1   699 – Lowell Observatory-LONEOS MPS 73710
2003 03 06.39914 11 01 25.93 +08 02 27.0   699 – Lowell Observatory-LONEOS MPS 73710
2003 03 06.41400 11 01 25.08 +08 02 30.7   699 – Lowell Observatory-LONEOS MPS 73710
2003 03 07.40398 11 00 31.54 +08 06 50.7 18.7 R 699 – Lowell Observatory-LONEOS MPS 73710
2003 03 07.42025 11 00 30.61 +08 06 54.2   699 – Lowell Observatory-LONEOS MPS 73710
2003 03 07.43643 11 00 29.72 +08 07 00.2   699 – Lowell Observatory-LONEOS MPS 73710
2003 03 07.45258 11 00 28.83 +08 07 04.3   699 – Lowell Observatory-LONEOS MPS 73710
2003 03 09.30717 10 58 48.94 +08 15 04.3 19.4   704 – Lincoln Laboratory ETS, New Mexico MPS 73710
2003 03 09.32099 10 58 48.19 +08 15 08.0 19.6   704 – Lincoln Laboratory ETS, New Mexico MPS 73710
2003 03 09.33411 10 58 47.45 +08 15 11.0 19.3   704 – Lincoln Laboratory ETS, New Mexico MPS 73710
2003 03 09.34790 10 58 46.64 +08 15 14.5 19.3   704 – Lincoln Laboratory ETS, New Mexico MPS 73710
2003 03 09.36114 10 58 45.93 +08 15 17.3 19.0   704 – Lincoln Laboratory ETS, New Mexico MPS 73710
2003 03 27.13530 10 44 36.10 +09 17 01.7 19.4 V 691 – Steward Observatory, Kitt Peak-Spacewatch MPS 77658
2003 03 27.16280 10 44 34.98 +09 17 06.1 20.3 V 691 – Steward Observatory, Kitt Peak-Spacewatch MPS 77658
2003 03 27.18875 10 44 33.92 +09 17 09.7 19.6 V 691 – Steward Observatory, Kitt Peak-Spacewatch MPS 77658
2003 03 29.12091 10 43 21.54 +09 21 36.5 19.9 V 291 – LPL/Spacewatch II MPS 77658
